| time (UTC) | temp C | wind direction | speed KPH | gust KPH | rain 1hr cm | rain 24hr cm | rain mn cm | humidity % | barometer mb |
| 20260507213304 | 6 | 91 | 9.7 | 16.1 | 0.00 | 0.00 | 0.00 | 67 | 1019.6 |
| 20260507213057 | 5 | 97 | 8.0 | 16.1 | 0.00 | 0.00 | 0.00 | 66 | 1019.6 |
| 20260507211558 | 6 | 90 | 8.0 | 16.1 | 0.00 | 0.00 | 0.00 | 67 | 1019.5 |
| 20260507211304 | 6 | 96 | 8.0 | 12.9 | 0.00 | 0.00 | 0.00 | 68 | 1019.5 |
| 20260507210304 | 6 | 91 | 9.7 | 14.5 | 0.00 | 0.00 | 0.00 | 68 | 1019.4 |
| 20260507210058 | 6 | 91 | 9.7 | 14.5 | 0.00 | 0.00 | 0.00 | 67 | 1019.4 |
| 20260507204804 | 6 | 90 | 9.7 | 14.5 | 0.00 | 0.00 | 0.00 | 66 | 1019.3 |
| 20260507204600 | 6 | 91 | 8.0 | 14.5 | 0.00 | 0.00 | 0.00 | 66 | 1019.2 |
| 20260507204304 | 7 | 87 | 11.3 | 14.5 | 0.00 | 0.00 | 0.00 | 66 | 1019.2 |
| 20260507203804 | 7 | 84 | 11.3 | 12.9 | 0.00 | 0.00 | 0.00 | 65 | 1019.1 |
| 20260507203304 | 7 | 78 | 11.3 | 16.1 | 0.00 | 0.00 | 0.00 | 64 | 1019.1 |
| 20260507203101 | 7 | 74 | 12.9 | 16.1 | 0.00 | 0.00 | 0.00 | 63 | 1019.0 |
| 20260507201804 | 8 | 75 | 12.9 | 14.5 | 0.00 | 0.00 | 0.00 | 61 | 1019.1 |
| 20260507201610 | 8 | 79 | 12.9 | 14.5 | 0.00 | 0.00 | 0.00 | 60 | 1019.0 |
| 20260507201304 | 8 | 75 | 12.9 | 14.5 | 0.00 | 0.00 | 0.00 | 60 | 1019.1 |
| 20260507200804 | 9 | 71 | 11.3 | 12.9 | 0.00 | 0.00 | 0.00 | 58 | 1019.1 |
| 20260507200304 | 9 | 70 | 9.7 | 19.3 | 0.00 | 0.00 | 0.00 | 57 | 1019.1 |
| 20260507200108 | 9 | 68 | 9.7 | 17.7 | 0.00 | 0.00 | 0.00 | 56 | 1018.9 |
| 20260507194804 | 10 | 62 | 12.9 | 16.1 | 0.00 | 0.00 | 0.00 | 56 | 1018.9 |
| 20260507194557 | 10 | 52 | 11.3 | 16.1 | 0.00 | 0.00 | 0.00 | 55 | 1018.8 |
| 20260507194304 | 10 | 56 | 9.7 | 14.5 | 0.00 | 0.00 | 0.00 | 55 | 1018.8 |
| 20260507193804 | 10 | 50 | 12.9 | 16.1 | 0.00 | 0.00 | 0.00 | 55 | 1018.8 |
| 20260507193304 | 10 | 47 | 9.7 | 14.5 | 0.00 | 0.00 | 0.00 | 54 | 1018.7 |
| 20260507193058 | 10 | 45 | 9.7 | 14.5 | 0.00 | 0.00 | 0.00 | 54 | 1018.8 |
| 20260507191804 | 11 | 41 | 11.3 | 16.1 | 0.00 | 0.00 | 0.00 | 53 | 1018.5 |
| 20260507191558 | 10 | 41 | 9.7 | 19.3 | 0.00 | 0.00 | 0.00 | 53 | 1018.5 |
| 20260507190804 | 11 | 41 | 14.5 | 19.3 | 0.00 | 0.00 | 0.00 | 52 | 1018.4 |
| 20260507190305 | 11 | 41 | 11.3 | 19.3 | 0.00 | 0.00 | 0.00 | 51 | 1018.4 |
| 20260507190057 | 11 | 43 | 12.9 | 20.9 | 0.00 | 0.00 | 0.00 | 51 | 1018.3 |
| 20260507184804 | 11 | 45 | 14.5 | 19.3 | 0.00 | 0.00 | 0.00 | 51 | 1018.2 |
| 20260507184603 | 11 | 50 | 11.3 | 20.9 | 0.00 | 0.00 | 0.00 | 51 | 1018.1 |
| 20260507184304 | 11 | 39 | 12.9 | 19.3 | 0.00 | 0.00 | 0.00 | 51 | 1018.0 |
| 20260507183804 | 12 | 46 | 14.5 | 20.9 | 0.00 | 0.00 | 0.00 | 49 | 1018.0 |
| 20260507183305 | 12 | 45 | 14.5 | 22.5 | 0.00 | 0.00 | 0.00 | 48 | 1018.0 |
| 20260507183055 | 11 | 48 | 9.7 | 17.7 | 0.00 | 0.00 | 0.00 | 47 | 1017.9 |
| 20260507181603 | 12 | 44 | 9.7 | 22.5 | 0.00 | 0.00 | 0.00 | 45 | 1017.7 |
| 20260507181304 | 12 | 49 | 12.9 | 22.5 | 0.00 | 0.00 | 0.00 | 46 | 1017.8 |
| 20260507180804 | 12 | 44 | 14.5 | 20.9 | 0.00 | 0.00 | 0.00 | 45 | 1017.7 |
| 20260507180057 | 12 | 29 | 9.7 | 20.9 | 0.00 | 0.00 | 0.00 | 43 | 1017.7 |
| 20260507174804 | 12 | 46 | 19.3 | 24.1 | 0.00 | 0.00 | 0.00 | 46 | 1017.5 |
| 20260507174606 | 12 | 36 | 16.1 | 22.5 | 0.00 | 0.00 | 0.00 | 45 | 1017.6 |
| 20260507174304 | 12 | 48 | 19.3 | 22.5 | 0.00 | 0.00 | 0.00 | 44 | 1017.6 |
| 20260507173804 | 13 | 42 | 16.1 | 22.5 | 0.00 | 0.00 | 0.00 | 44 | 1017.6 |
| 20260507173304 | 13 | 40 | 16.1 | 22.5 | 0.00 | 0.00 | 0.00 | 42 | 1017.5 |
| 20260507173055 | 12 | 38 | 14.5 | 24.1 | 0.00 | 0.00 | 0.00 | 42 | 1017.6 |
| 20260507171804 | 12 | 35 | 16.1 | 22.5 | 0.00 | 0.00 | 0.00 | 40 | 1017.5 |
| 20260507171602 | 12 | 51 | 16.1 | 22.5 | 0.00 | 0.00 | 0.00 | 40 | 1017.4 |
| 20260507171304 | 12 | 36 | 12.9 | 19.3 | 0.00 | 0.00 | 0.00 | 41 | 1017.5 |
| 20260507170804 | 13 | 32 | 14.5 | 22.5 | 0.00 | 0.00 | 0.00 | 41 | 1017.4 |
| 20260507170304 | 13 | 29 | 17.7 | 22.5 | 0.00 | 0.00 | 0.00 | 43 | 1017.4 |
| 20260507170055 | 12 | 40 | 14.5 | 22.5 | 0.00 | 0.00 | 0.00 | 43 | 1017.4 |
| 20260507164804 | 13 | 44 | 11.3 | 22.5 | 0.00 | 0.00 | 0.00 | 44 | 1017.4 |
| 20260507164557 | 12 | 10 | 12.9 | 22.5 | 0.00 | 0.00 | 0.00 | 43 | 1017.4 |
| 20260507164304 | 13 | 37 | 9.7 | 16.1 | 0.00 | 0.00 | 0.00 | 43 | 1017.4 |
| 20260507163804 | 13 | 28 | 11.3 | 19.3 | 0.00 | 0.00 | 0.00 | 41 | 1017.4 |
| 20260507163304 | 13 | 47 | 14.5 | 24.1 | 0.00 | 0.00 | 0.00 | 42 | 1017.3 |
| 20260507163059 | 12 | 21 | 8.0 | 24.1 | 0.00 | 0.00 | 0.00 | 41 | 1017.3 |
| 20260507161804 | 13 | 24 | 16.1 | 22.5 | 0.00 | 0.00 | 0.00 | 40 | 1017.4 |
| 20260507161558 | 13 | 14 | 12.9 | 20.9 | 0.00 | 0.00 | 0.00 | 40 | 1017.3 |
| 20260507161304 | 13 | 34 | 14.5 | 19.3 | 0.00 | 0.00 | 0.00 | 41 | 1017.4 |
| 20260507160804 | 13 | 25 | 11.3 | 20.9 | 0.00 | 0.00 | 0.00 | 42 | 1017.4 |
| 20260507160304 | 13 | 29 | 16.1 | 24.1 | 0.00 | 0.00 | 0.00 | 41 | 1017.5 |
| 20260507160058 | 12 | 28 | 12.9 | 24.1 | 0.00 | 0.00 | 0.00 | 41 | 1017.5 |
| 20260507154804 | 13 | 28 | 19.3 | 24.1 | 0.00 | 0.00 | 0.00 | 43 | 1017.4 |
| 20260507154604 | 12 | 29 | 17.7 | 24.1 | 0.00 | 0.00 | 0.00 | 43 | 1017.2 |
| 20260507154304 | 12 | 34 | 19.3 | 22.5 | 0.00 | 0.00 | 0.00 | 43 | 1017.3 |
| 20260507153804 | 12 | 21 | 19.3 | 24.1 | 0.00 | 0.00 | 0.00 | 43 | 1017.5 |
| 20260507153304 | 13 | 14 | 22.5 | 29.0 | 0.00 | 0.00 | 0.00 | 45 | 1017.4 |
| 20260507153102 | 12 | 14 | 17.7 | 29.0 | 0.00 | 0.00 | 0.00 | 44 | 1017.3 |
| 20260507151557 | 12 | 26 | 17.7 | 27.4 | 0.00 | 0.00 | 0.00 | 47 | 1017.2 |
| 20260507151304 | 13 | 20 | 14.5 | 24.1 | 0.00 | 0.00 | 0.00 | 46 | 1017.2 |
| 20260507150805 | 13 | 19 | 19.3 | 27.4 | 0.00 | 0.00 | 0.00 | 48 | 1017.2 |
| 20260507150304 | 13 | 19 | 20.9 | 25.7 | 0.00 | 0.00 | 0.00 | 47 | 1017.3 |
| 20260507150059 | 12 | 23 | 19.3 | 25.7 | 0.00 | 0.00 | 0.00 | 46 | 1017.2 |
| 20260507144556 | 12 | 34 | 16.1 | 25.7 | 0.00 | 0.00 | 0.00 | 45 | 1017.1 |
| 20260507144304 | 13 | 4 | 14.5 | 22.5 | 0.00 | 0.00 | 0.00 | 43 | 1017.3 |
| 20260507143804 | 13 | 19 | 16.1 | 24.1 | 0.00 | 0.00 | 0.00 | 45 | 1017.2 |
| 20260507143058 | 12 | 23 | 19.3 | 27.4 | 0.00 | 0.00 | 0.00 | 50 | 1017.3 |
| 20260507141804 | 13 | 10 | 16.1 | 24.1 | 0.00 | 0.00 | 0.00 | 50 | 1017.4 |
| 20260507141557 | 12 | 12 | 12.9 | 27.4 | 0.00 | 0.00 | 0.00 | 50 | 1017.4 |
| 20260507141304 | 12 | 22 | 19.3 | 25.7 | 0.00 | 0.00 | 0.00 | 51 | 1017.4 |
| 20260507140304 | 12 | 19 | 20.9 | 25.7 | 0.00 | 0.00 | 0.00 | 53 | 1017.3 |
| 20260507140104 | 12 | 18 | 17.7 | 24.1 | 0.00 | 0.00 | 0.00 | 53 | 1017.3 |
| 20260507134804 | 12 | 3 | 19.3 | 25.7 | 0.00 | 0.00 | 0.00 | 55 | 1017.3 |
| 20260507134643 | 12 | 6 | 17.7 | 25.7 | 0.00 | 0.00 | 0.00 | 56 | 1017.3 |
| 20260507134304 | 12 | 17 | 20.9 | 25.7 | 0.00 | 0.00 | 0.00 | 54 | 1017.4 |
| 20260507133804 | 12 | 23 | 14.5 | 22.5 | 0.00 | 0.00 | 0.00 | 53 | 1017.3 |
| 20260507133304 | 12 | 25 | 20.9 | 29.0 | 0.00 | 0.00 | 0.00 | 52 | 1017.4 |
| 20260507133106 | 12 | 360 | 14.5 | 29.0 | 0.00 | 0.00 | 0.00 | 50 | 1017.3 |
| 20260507131804 | 12 | 4 | 19.3 | 25.7 | 0.00 | 0.00 | 0.00 | 50 | 1017.3 |
| 20260507131603 | 12 | 25 | 12.9 | 29.0 | 0.00 | 0.00 | 0.00 | 49 | 1017.2 |
| 20260507131304 | 12 | 26 | 17.7 | 29.0 | 0.00 | 0.00 | 0.00 | 55 | 1017.3 |
| 20260507130304 | 12 | 13 | 16.1 | 27.4 | 0.00 | 0.00 | 0.00 | 53 | 1017.3 |
| 20260507130109 | 12 | 25 | 16.1 | 27.4 | 0.00 | 0.00 | 0.00 | 53 | 1017.2 |
| 20260507124557 | 12 | 29 | 14.5 | 25.7 | 0.00 | 0.00 | 0.00 | 55 | 1017.1 |
| 20260507124304 | 12 | 32 | 17.7 | 25.7 | 0.00 | 0.00 | 0.00 | 56 | 1017.1 |
| 20260507123804 | 12 | 12 | 20.9 | 25.7 | 0.00 | 0.00 | 0.00 | 54 | 1017.1 |
| 20260507123305 | 12 | 20 | 16.1 | 27.4 | 0.00 | 0.00 | 0.00 | 54 | 1017.1 |
| 20260507123059 | 11 | 23 | 19.3 | 27.4 | 0.00 | 0.00 | 0.00 | 54 | 1017.2 |
| 20260507121805 | 12 | 14 | 16.1 | 24.1 | 0.00 | 0.00 | 0.00 | 55 | 1017.1 |
| 20260507121607 | 11 | 17 | 17.7 | 25.7 | 0.00 | 0.00 | 0.00 | 55 | 1017.0 |
| 20260507121304 | 12 | 7 | 19.3 | 25.7 | 0.00 | 0.00 | 0.00 | 57 | 1017.0 |
| 20260507120806 | 12 | 15 | 16.1 | 24.1 | 0.00 | 0.00 | 0.00 | 58 | 1017.0 |
| 20260507120305 | 12 | 8 | 17.7 | 25.7 | 0.00 | 0.00 | 0.00 | 56 | 1017.0 |
| 20260507120105 | 11 | 8 | 16.1 | 25.7 | 0.00 | 0.00 | 0.00 | 57 | 1016.8 |
| 20260507114804 | 12 | 24 | 16.1 | 24.1 | 0.00 | 0.00 | 0.00 | 63 | 1016.9 |
| 20260507114613 | 11 | 21 | 17.7 | 25.7 | 0.00 | 0.00 | 0.00 | 62 | 1016.9 |
| 20260507114304 | 11 | 12 | 16.1 | 25.7 | 0.00 | 0.00 | 0.00 | 63 | 1017.0 |
| 20260507113804 | 12 | 14 | 14.5 | 22.5 | 0.00 | 0.00 | 0.00 | 61 | 1017.0 |
| 20260507113304 | 12 | 31 | 16.1 | 24.1 | 0.00 | 0.00 | 0.00 | 63 | 1017.0 |
| 20260507113101 | 11 | 17 | 12.9 | 25.7 | 0.00 | 0.00 | 0.00 | 63 | 1016.9 |
| 20260507111804 | 12 | 9 | 16.1 | 24.1 | 0.00 | 0.00 | 0.00 | 64 | 1017.0 |
| 20260507111604 | 12 | 31 | 16.1 | 24.1 | 0.00 | 0.00 | 0.00 | 64 | 1016.9 |
| 20260507111304 | 12 | 7 | 16.1 | 24.1 | 0.00 | 0.00 | 0.00 | 64 | 1016.9 |
| 20260507110804 | 12 | 22 | 14.5 | 25.7 | 0.00 | 0.00 | 0.00 | 65 | 1017.1 |
| 20260507110304 | 12 | 14 | 14.5 | 22.5 | 0.00 | 0.00 | 0.00 | 65 | 1017.1 |
| 20260507110109 | 11 | 328 | 11.3 | 22.5 | 0.00 | 0.00 | 0.00 | 65 | 1016.9 |
| 20260507104804 | 11 | 349 | 12.9 | 20.9 | 0.00 | 0.00 | 0.00 | 66 | 1016.9 |
| 20260507104557 | 11 | 11 | 14.5 | 20.9 | 0.00 | 0.00 | 0.00 | 65 | 1016.8 |
| 20260507104304 | 11 | 357 | 11.3 | 19.3 | 0.00 | 0.00 | 0.00 | 65 | 1016.9 |
| 20260507103805 | 11 | 11 | 12.9 | 19.3 | 0.00 | 0.00 | 0.00 | 65 | 1016.8 |
| 20260507103305 | 11 | 320 | 14.5 | 20.9 | 0.00 | 0.00 | 0.00 | 65 | 1016.9 |
| 20260507103057 | 11 | 323 | 8.0 | 19.3 | 0.00 | 0.00 | 0.00 | 64 | 1016.8 |
| 20260507101836 | 11 | 4 | 8.0 | 16.1 | 0.00 | 0.00 | 0.00 | 65 | 1016.7 |
| 20260507101605 | 11 | 350 | 9.7 | 19.3 | 0.00 | 0.00 | 0.00 | 64 | 1016.5 |
| 20260507101304 | 11 | 354 | 11.3 | 19.3 | 0.00 | 0.00 | 0.00 | 65 | 1016.6 |
| 20260507100804 | 11 | 333 | 12.9 | 19.3 | 0.00 | 0.00 | 0.00 | 65 | 1016.6 |
| 20260507100305 | 11 | 351 | 9.7 | 19.3 | 0.00 | 0.00 | 0.00 | 67 | 1016.6 |
| 20260507100058 | 11 | 1 | 8.0 | 17.7 | 0.00 | 0.00 | 0.00 | 68 | 1016.6 |
| 20260507094804 | 11 | 313 | 11.3 | 19.3 | 0.00 | 0.00 | 0.00 | 67 | 1016.5 |
| 20260507094558 | 11 | 5 | 14.5 | 19.3 | 0.00 | 0.00 | 0.00 | 67 | 1016.4 |
| 20260507094304 | 11 | 340 | 11.3 | 19.3 | 0.00 | 0.00 | 0.00 | 67 | 1016.4 |
| 20260507093804 | 11 | 337 | 11.3 | 19.3 | 0.00 | 0.00 | 0.00 | 67 | 1016.4 |
| 20260507093304 | 11 | 338 | 11.3 | 19.3 | 0.00 | 0.00 | 0.00 | 67 | 1016.3 |
| 20260507093059 | 11 | 340 | 16.1 | 20.9 | 0.00 | 0.00 | 0.00 | 66 | 1016.2 |
| 20260507091804 | 11 | 357 | 8.0 | 22.5 | 0.00 | 0.00 | 0.00 | 68 | 1016.3 |
| 20260507091600 | 10 | 350 | 12.9 | 20.9 | 0.00 | 0.00 | 0.00 | 67 | 1016.1 |
| 20260507091304 | 11 | 356 | 9.7 | 19.3 | 0.00 | 0.00 | 0.00 | 68 | 1016.2 |
| 20260507090804 | 11 | 30 | 11.3 | 20.9 | 0.00 | 0.00 | 0.00 | 68 | 1016.1 |
| 20260507090058 | 10 | 25 | 12.9 | 22.5 | 0.00 | 0.00 | 0.00 | 66 | 1016.1 |
| 20260507084804 | 11 | 8 | 12.9 | 19.3 | 0.00 | 0.00 | 0.00 | 66 | 1016.1 |
| 20260507084559 | 10 | 354 | 8.0 | 17.7 | 0.00 | 0.00 | 0.00 | 65 | 1016.1 |
| 20260507084304 | 11 | 349 | 11.3 | 16.1 | 0.00 | 0.00 | 0.00 | 65 | 1016.1 |
| 20260507083804 | 11 | 356 | 9.7 | 19.3 | 0.00 | 0.00 | 0.00 | 64 | 1016.0 |
| 20260507083304 | 10 | 28 | 16.1 | 22.5 | 0.00 | 0.00 | 0.00 | 66 | 1016.1 |
| 20260507083056 | 10 | 12 | 12.9 | 17.7 | 0.00 | 0.00 | 0.00 | 66 | 1016.1 |
| 20260507081804 | 10 | 32 | 6.4 | 16.1 | 0.00 | 0.00 | 0.00 | 65 | 1015.9 |
| 20260507081603 | 10 | 33 | 6.4 | 17.7 | 0.00 | 0.00 | 0.00 | 64 | 1016.0 |
| 20260507081305 | 10 | 351 | 8.0 | 16.1 | 0.00 | 0.00 | 0.00 | 66 | 1016.0 |
| 20260507080804 | 10 | 337 | 9.7 | 19.3 | 0.00 | 0.00 | 0.00 | 66 | 1015.9 |
| 20260507080304 | 10 | 5 | 9.7 | 16.1 | 0.00 | 0.00 | 0.00 | 66 | 1016.0 |
| 20260507080104 | 10 | 7 | 6.4 | 16.1 | 0.00 | 0.00 | 0.00 | 66 | 1015.8 |
| 20260507074804 | 10 | 11 | 8.0 | 14.5 | 0.00 | 0.00 | 0.00 | 67 | 1015.8 |
| 20260507074609 | 10 | 24 | 8.0 | 14.5 | 0.00 | 0.00 | 0.00 | 67 | 1015.7 |
| 20260507074304 | 10 | 12 | 6.4 | 14.5 | 0.00 | 0.00 | 0.00 | 67 | 1015.9 |
| 20260507073806 | 10 | 0 | 6.4 | 12.9 | 0.00 | 0.00 | 0.00 | 68 | 1015.8 |
| 20260507073057 | 9 | 34 | 9.7 | 14.5 | 0.00 | 0.00 | 0.00 | 68 | 1015.7 |
| 20260507071805 | 9 | 0 | 6.4 | 12.9 | 0.00 | 0.00 | 0.00 | 71 | 1015.7 |
| 20260507071559 | 9 | 13 | 8.0 | 14.5 | 0.00 | 0.00 | 0.00 | 71 | 1015.6 |
| 20260507071304 | 9 | 347 | 4.8 | 12.9 | 0.00 | 0.00 | 0.00 | 71 | 1015.6 |
| 20260507070804 | 9 | 0 | 8.0 | 12.9 | 0.00 | 0.00 | 0.00 | 71 | 1015.6 |
| 20260507070305 | 9 | 333 | 6.4 | 12.9 | 0.00 | 0.00 | 0.00 | 72 | 1015.5 |
| 20260507070058 | 9 | 324 | 4.8 | 12.9 | 0.00 | 0.00 | 0.00 | 72 | 1015.4 |
| 20260507064804 | 8 | 25 | 8.0 | 11.3 | 0.00 | 0.00 | 0.00 | 73 | 1015.4 |
| 20260507064557 | 8 | 2 | 6.4 | 9.7 | 0.00 | 0.00 | 0.00 | 73 | 1015.4 |
| 20260507064304 | 8 | 16 | 3.2 | 9.7 | 0.00 | 0.00 | 0.00 | 74 | 1015.4 |
| 20260507063304 | 8 | 319 | 4.8 | 9.7 | 0.00 | 0.00 | 0.00 | 75 | 1015.4 |
| 20260507063100 | 8 | 324 | 3.2 | 9.7 | 0.00 | 0.00 | 0.00 | 74 | 1015.3 |
| 20260507061804 | 8 | 18 | 4.8 | 8.0 | 0.00 | 0.00 | 0.00 | 74 | 1015.2 |
| 20260507061601 | 8 | 340 | 1.6 | 4.8 | 0.00 | 0.00 | 0.00 | 74 | 1015.3 |
| 20260507061304 | 8 | 340 | 3.2 | 4.8 | 0.00 | 0.00 | 0.00 | 75 | 1015.3 |
| 20260507060805 | 8 | 65 | 1.6 | 3.2 | 0.00 | 0.00 | 0.00 | 76 | 1015.2 |
| 20260507060304 | 8 | 65 | 0.0 | 3.2 | 0.00 | 0.00 | 0.00 | 78 | 1015.2 |
| 20260507054804 | 7 | 65 | 1.6 | 1.6 | 0.00 | 0.00 | 0.00 | 82 | 1015.1 |
| 20260507054639 | 7 | 0 | 0.0 | 3.2 | 0.00 | 0.00 | 0.00 | 82 | 1015.1 |
| 20260507054304 | 6 | 65 | 0.0 | 1.6 | 0.00 | 0.00 | 0.00 | 82 | 1015.0 |
| 20260507053307 | 6 | 65 | 0.0 | 3.2 | 0.00 | 0.00 | 0.00 | 83 | 1014.9 |
| 20260507053058 | 5 | 0 | 0.0 | 1.6 | 0.00 | 0.00 | 0.00 | 83 | 1014.7 |
| 20260507051804 | 4 | 65 | 0.0 | 1.6 | 0.00 | 0.00 | 0.00 | 84 | 1014.7 |
| 20260507051603 | 3 | 0 | 0.0 | 3.2 | 0.00 | 0.00 | 0.00 | 84 | 1014.7 |
| 20260507051304 | 3 | 65 | 0.0 | 1.6 | 0.00 | 0.00 | 0.00 | 84 | 1014.7 |
| 20260507050804 | 3 | 65 | 0.0 | 3.2 | 0.00 | 0.00 | 0.00 | 84 | 1014.7 |
| 20260507050304 | 2 | 65 | 1.6 | 3.2 | 0.00 | 0.00 | 0.00 | 84 | 1014.7 |
| 20260507050059 | 2 | 65 | 0.0 | 3.2 | 0.00 | 0.00 | 0.00 | 84 | 1014.5 |
| 20260507044804 | 2 | 65 | 0.0 | 0.0 | 0.00 | 0.00 | 0.00 | 84 | 1014.4 |
| 20260507044603 | 2 | 0 | 0.0 | 3.2 | 0.00 | 0.00 | 0.00 | 84 | 1014.4 |
| 20260507044304 | 2 | 65 | 0.0 | 1.6 | 0.00 | 0.00 | 0.00 | 84 | 1014.5 |
| 20260507043804 | 1 | 65 | 1.6 | 3.2 | 0.00 | 0.00 | 0.00 | 84 | 1014.5 |
| 20260507043304 | 1 | 65 | 0.0 | 1.6 | 0.00 | 0.00 | 0.00 | 84 | 1014.5 |
| 20260507043103 | 1 | 0 | 0.0 | 1.6 | 0.00 | 0.00 | 0.00 | 83 | 1014.4 |
| 20260507041602 | 1 | 0 | 0.0 | 3.2 | 0.00 | 0.00 | 0.00 | 84 | 1014.3 |
| 20260507041304 | 1 | 65 | 0.0 | 0.0 | 0.00 | 0.00 | 0.00 | 84 | 1014.4 |
| 20260507040804 | 1 | 65 | 1.6 | 3.2 | 0.00 | 0.00 | 0.00 | 84 | 1014.4 |
| 20260507040304 | 0 | 65 | 3.2 | 4.8 | 0.00 | 0.00 | 0.00 | 84 | 1014.3 |
| 20260507040058 | 0 | 65 | 3.2 | 6.4 | 0.00 | 0.00 | 0.00 | 83 | 1014.3 |
| 20260507034600 | 0 | 65 | 1.6 | 3.2 | 0.00 | 0.00 | 0.00 | 83 | 1014.1 |
| 20260507034304 | 0 | 65 | 1.6 | 3.2 | 0.00 | 0.00 | 0.00 | 83 | 1014.2 |
| 20260507033804 | 0 | 65 | 0.0 | 0.0 | 0.00 | 0.00 | 0.00 | 84 | 1014.1 |
| 20260507033304 | 0 | 65 | 0.0 | 4.8 | 0.00 | 0.00 | 0.00 | 83 | 1014.1 |
| 20260507033105 | 0 | 0 | 0.0 | 4.8 | 0.00 | 0.00 | 0.00 | 83 | 1014.1 |
| 20260507031804 | 0 | 65 | 3.2 | 3.2 | 0.00 | 0.00 | 0.00 | 83 | 1014.1 |
| 20260507031609 | 0 | 65 | 0.0 | 4.8 | 0.00 | 0.00 | 0.00 | 83 | 1014.1 |
| 20260507031304 | 0 | 65 | 1.6 | 3.2 | 0.00 | 0.00 | 0.00 | 83 | 1014.1 |
| 20260507030100 | 0 | 65 | 0.0 | 3.2 | 0.00 | 0.00 | 0.00 | 82 | 1014.1 |
| 20260507024604 | 0 | 0 | 0.0 | 3.2 | 0.00 | 0.00 | 0.00 | 82 | 1014.0 |
| 20260507024305 | 0 | 65 | 0.0 | 1.6 | 0.00 | 0.00 | 0.00 | 83 | 1014.0 |
| 20260507023804 | 0 | 65 | 1.6 | 3.2 | 0.00 | 0.00 | 0.00 | 83 | 1014.0 |
| 20260507023304 | 0 | 65 | 1.6 | 3.2 | 0.00 | 0.00 | 0.00 | 82 | 1013.8 |
| 20260507023107 | 0 | 65 | 1.6 | 3.2 | 0.00 | 0.00 | 0.00 | 82 | 1013.8 |
| 20260507021602 | 0 | 0 | 0.0 | 1.6 | 0.00 | 0.00 | 0.00 | 82 | 1013.7 |
| 20260507021304 | 1 | 65 | 0.0 | 1.6 | 0.00 | 0.00 | 0.00 | 82 | 1013.8 |
| 20260507020304 | 1 | 65 | 0.0 | 0.0 | 0.00 | 0.00 | 0.00 | 82 | 1013.8 |
| 20260507014804 | 1 | 65 | 0.0 | 0.0 | 0.00 | 0.00 | 0.00 | 82 | 1013.8 |
| 20260507014605 | 1 | 0 | 0.0 | 4.8 | 0.00 | 0.00 | 0.00 | 81 | 1013.9 |
| 20260507014304 | 1 | 65 | 0.0 | 4.8 | 0.00 | 0.00 | 0.00 | 82 | 1013.8 |
| 20260507013804 | 1 | 65 | 1.6 | 4.8 | 0.00 | 0.00 | 0.00 | 82 | 1013.8 |
| 20260507013056 | 1 | 65 | 4.8 | 6.4 | 0.00 | 0.00 | 0.00 | 81 | 1013.8 |
| 20260507011804 | 1 | 65 | 4.8 | 4.8 | 0.00 | 0.00 | 0.00 | 81 | 1013.7 |
| 20260507011556 | 1 | 65 | 4.8 | 6.4 | 0.00 | 0.00 | 0.00 | 81 | 1013.7 |
| 20260507010804 | 1 | 65 | 3.2 | 4.8 | 0.00 | 0.00 | 0.00 | 81 | 1013.8 |
| 20260507010305 | 1 | 65 | 4.8 | 8.0 | 0.00 | 0.00 | 0.00 | 81 | 1013.7 |
| 20260507004804 | 2 | 65 | 3.2 | 4.8 | 0.00 | 0.00 | 0.00 | 81 | 1013.6 |
| 20260507004558 | 1 | 65 | 3.2 | 6.4 | 0.00 | 0.00 | 0.00 | 80 | 1013.5 |
| 20260507004304 | 1 | 65 | 3.2 | 4.8 | 0.00 | 0.00 | 0.00 | 81 | 1013.6 |
| 20260507003305 | 1 | 65 | 4.8 | 8.0 | 0.00 | 0.00 | 0.00 | 80 | 1013.5 |
| 20260507003055 | 1 | 65 | 4.8 | 8.0 | 0.00 | 0.00 | 0.00 | 79 | 1013.4 |
| 20260507001605 | 1 | 65 | 8.0 | 12.9 | 0.00 | 0.00 | 0.00 | 79 | 1013.4 |
| 20260507000306 | 2 | 66 | 9.7 | 12.9 | 0.00 | 0.00 | 0.00 | 78 | 1013.3 |
| 20260507000057 | 2 | 64 | 9.7 | 12.9 | 0.00 | 0.00 | 0.00 | 78 | 1013.3 |
| 20260506234600 | 2 | 56 | 8.0 | 12.9 | 0.00 | 0.00 | 0.00 | 77 | 1013.3 |
| 20260506234304 | 2 | 56 | 8.0 | 12.9 | 0.00 | 0.00 | 0.00 | 78 | 1013.3 |
| 20260506233304 | 2 | 54 | 8.0 | 9.7 | 0.00 | 0.00 | 0.00 | 77 | 1013.4 |
| 20260506233109 | 2 | 54 | 6.4 | 9.7 | 0.00 | 0.00 | 0.00 | 77 | 1013.4 |
| 20260506231804 | 2 | 50 | 8.0 | 9.7 | 0.00 | 0.00 | 0.00 | 77 | 1013.3 |
| 20260506231559 | 2 | 50 | 6.4 | 11.3 | 0.00 | 0.00 | 0.00 | 77 | 1013.3 |
| 20260506231304 | 2 | 55 | 8.0 | 9.7 | 0.00 | 0.00 | 0.00 | 77 | 1013.3 |
| 20260506230804 | 2 | 53 | 8.0 | 11.3 | 0.00 | 0.00 | 0.00 | 77 | 1013.2 |
| 20260506230304 | 2 | 57 | 8.0 | 12.9 | 0.00 | 0.00 | 0.00 | 76 | 1013.2 |
| 20260506230058 | 2 | 57 | 6.4 | 12.9 | 0.00 | 0.00 | 0.00 | 76 | 1013.0 |
| 20260506224804 | 3 | 50 | 8.0 | 9.7 | 0.00 | 0.00 | 0.00 | 76 | 1013.0 |
| 20260506224556 | 3 | 48 | 8.0 | 12.9 | 0.00 | 0.00 | 0.00 | 76 | 1013.1 |
| 20260506224304 | 3 | 46 | 9.7 | 12.9 | 0.00 | 0.00 | 0.00 | 77 | 1013.0 |
| 20260506223804 | 3 | 51 | 9.7 | 12.9 | 0.00 | 0.00 | 0.00 | 76 | 1013.0 |
| 20260506223102 | 3 | 40 | 6.4 | 14.5 | 0.00 | 0.00 | 0.00 | 75 | 1013.0 |
| 20260506221804 | 3 | 44 | 9.7 | 14.5 | 0.00 | 0.00 | 0.00 | 76 | 1012.9 |
| 20260506221559 | 3 | 44 | 9.7 | 14.5 | 0.00 | 0.00 | 0.00 | 75 | 1012.8 |
| 20260506221304 | 3 | 45 | 9.7 | 12.9 | 0.00 | 0.00 | 0.00 | 75 | 1012.8 |
| 20260506220827 | 3 | 44 | 8.0 | 11.3 | 0.00 | 0.00 | 0.00 | 75 | 1012.8 |
| 20260506220304 | 3 | 44 | 8.0 | 12.9 | 0.00 | 0.00 | 0.00 | 75 | 1012.7 |
| 20260506220059 | 3 | 44 | 6.4 | 12.9 | 0.00 | 0.00 | 0.00 | 74 | 1012.7 |
| 20260506214804 | 3 | 32 | 9.7 | 12.9 | 0.00 | 0.00 | 0.00 | 74 | 1012.4 |
| 20260506214557 | 3 | 29 | 9.7 | 12.9 | 0.00 | 0.00 | 0.00 | 74 | 1012.3 |
| 20260506214304 | 4 | 26 | 9.7 | 12.9 | 0.00 | 0.00 | 0.00 | 74 | 1012.4 |
| 20260506213804 | 4 | 27 | 9.7 | 9.7 | 0.00 | 0.00 | 0.00 | 74 | 1012.4 |